Theta_e
338 338 338 338 347 349 349 347 345 344 343 342 339 336 332 327 325 325 324 325 323 323 323 323 322 322 322 322 323 323 322 321
339 339 340 340 345 350 349 348 348 346 343 342 339 334 330 327 326 324 323 324 322 323 323 322 322 322 321 321 321 321 321 322
338 338 341 341 345 349 349 348 347 346 343 340 337 333 329 326 325 324 322 323 322 324 322 321 321 320 320 321 320 321 321 323
339 339 341 343 344 349 349 348 348 345 342 339 335 331 326 326 326 323 323 323 324 323 321 320 319 319 319 320 320 321 321 323
341 341 343 344 346 348 348 348 345 342 339 336 332 327 325 324 324 322 322 323 323 321 321 319 318 317 319 319 321 320 321 321
344 345 345 347 349 349 346 343 341 340 335 333 330 326 324 323 322 322 322 322 322 321 319 317 316 318 319 318 320 320 319 319
346 346 350 349 346 344 342 341 340 336 333 331 328 324 324 322 321 322 322 321 321 321 317 315 317 318 318 319 318 319 320 320
347 351 349 346 344 341 339 336 335 334 332 329 326 324 323 321 321 321 321 320 319 318 315 315 315 316 316 316 319 317 318 318
350 349 347 345 343 340 336 337 335 332 330 327 325 325 322 321 321 321 319 318 318 316 314 314 316 314 314 314 314 316 317 315
353 348 346 343 339 337 336 335 333 332 328 327 326 324 322 321 321 320 318 317 317 315 315 314 313 314 312 313 314 311 315 313
353 349 346 342 339 338 336 336 333 330 327 326 323 321 319 321 321 319 316 316 315 315 315 314 313 313 314 312 312 314 312 310
354 350 346 343 341 337 335 334 332 329 326 324 323 321 322 322 320 318 316 315 314 315 315 314 314 313 313 313 312 312 309 309
354 351 346 343 339 337 336 333 330 328 325 324 322 325 321 319 319 318 316 315 314 314 315 315 315 313 313 312 312 311 309 309
354 351 345 343 338 337 334 332 329 327 325 326 323 324 321 320 319 318 317 315 314 314 314 314 314 315 313 312 313 311 309 309
351 352 346 342 338 336 333 330 329 327 326 325 323 322 321 320 319 318 316 315 315 314 314 314 313 314 312 313 311 311 309 309
334 349 345 341 337 335 331 330 329 326 325 323 323 322 322 321 318 318 315 315 316 315 314 314 312 311 312 312 309 310 309 309
333 349 343 340 337 334 332 330 328 326 324 323 323 321 321 320 319 316 317 315 315 315 314 313 311 309 311 312 309 309 309 309
340 345 343 341 335 335 332 330 327 325 324 323 323 321 320 319 318 315 314 313 315 315 313 311 310 307 310 311 311 309 310 309
329 342 341 339 336 335 333 330 327 325 324 323 322 321 320 319 317 316 315 315 314 314 313 311 310 307 309 311 311 309 309 310
331 336 341 339 336 335 332 329 326 325 323 323 322 321 319 318 316 315 314 314 314 313 313 310 309 307 310 312 312 310 310 310
Wind_Speed
21 21 21 20 33 30 26 25 19 13 11 10 10 8 6 7 7 10 7 9 10 11 12 13 15 16 17 16 16 17 16 15
18 17 19 20 21 29 23 21 16 12 9 6 7 7 6 7 8 9 8 11 10 12 13 14 14 15 16 16 17 15 14 16
21 21 22 19 20 23 18 17 15 11 9 8 8 8 7 7 7 10 11 11 11 9 11 13 13 14 14 14 15 14 14 15
21 20 21 19 19 18 16 14 14 11 10 9 8 7 9 7 6 10 10 10 11 11 11 13 11 12 12 12 14 12 14 17
22 20 19 19 21 17 18 16 15 11 8 8 7 8 8 9 8 10 11 11 8 12 11 11 10 12 11 13 14 11 13 13
24 23 22 20 22 22 19 14 12 12 11 12 8 6 8 11 8 8 9 8 9 7 11 10 13 10 12 13 14 14 10 6
24 23 23 24 25 23 15 16 15 14 12 10 9 8 8 12 9 7 6 6 6 7 9 10 12 15 12 14 14 11 14 17
25 27 27 25 21 19 17 17 16 15 13 12 11 8 9 12 9 6 5 5 7 10 9 9 10 13 15 16 13 10 12 15
27 27 24 22 21 19 19 19 20 18 16 16 13 11 9 10 7 6 5 5 6 7 9 7 10 12 13 14 18 14 8 14
20 22 21 23 23 21 21 19 20 17 17 11 12 11 11 12 9 7 6 5 7 7 9 10 13 12 17 15 18 18 11 13
21 23 25 25 25 24 22 22 23 20 16 14 13 12 11 11 8 11 6 6 6 8 8 9 11 13 13 14 16 17 16 16
23 23 29 31 26 23 23 24 23 19 20 16 15 17 14 13 15 11 8 6 7 7 7 8 9 10 13 13 15 19 16 16
24 23 29 33 29 28 26 25 24 21 22 18 16 8 13 12 12 11 11 8 6 5 5 5 6 7 8 10 10 14 14 16
26 30 34 30 29 26 26 25 25 23 21 17 17 14 14 15 13 11 11 11 8 4 3 4 5 4 6 7 7 11 12 13
2 21 24 29 29 27 25 25 23 23 20 17 13 16 12 15 14 10 11 11 13 8 3 2 5 2 4 4 7 7 10 12
15 18 26 28 29 26 25 24 24 23 21 19 17 17 14 13 14 10 8 7 13 9 5 3 1 2 2 3 5 7 5 3
28 29 32 31 29 28 27 27 24 24 22 21 20 20 16 15 11 9 4 6 7 8 6 3 0 2 1 2 4 4 1 2
19 2 13 24 30 27 27 26 26 25 24 22 21 19 16 15 11 12 10 8 8 9 6 3 2 2 3 4 4 5 1 3
20 8 19 23 26 27 28 26 24 24 24 22 22 19 17 14 12 11 11 8 7 7 7 4 4 2 3 2 1 3 2 1
6 14 23 26 25 25 28 26 25 23 23 23 23 20 19 17 15 13 11 10 9 8 7 4 2 2 4 5 6 3 3 5
Wind_Direction
160 156 159 153 116 124 135 141 127 164 146 169 131 104 92 69 43 50 19 14 7 4 6 8 9 5 4 358 0 4 350 341
161 150 145 142 132 125 132 136 140 145 147 127 127 114 106 82 54 41 26 18 11 11 12 14 13 8 4 358 5 353 344 343
158 164 143 161 128 122 129 140 149 151 143 133 118 120 112 95 70 32 25 23 19 11 17 16 15 9 3 359 359 348 7 15
155 164 158 156 146 133 147 160 165 165 151 141 131 122 108 91 63 44 28 29 19 13 20 16 11 6 1 5 351 23 14 37
158 168 156 167 151 158 150 150 153 138 136 134 133 132 124 95 68 46 35 22 16 10 27 18 0 1 5 14 12 23 26 35
158 162 161 155 142 146 135 140 154 150 158 133 138 130 123 98 81 47 44 26 11 31 29 14 6 13 22 17 18 359 19 24
149 155 138 122 138 138 148 155 158 160 151 138 151 140 115 94 78 62 50 32 12 27 40 20 25 29 26 16 15 1 355 359
145 122 128 133 139 146 162 162 162 159 157 153 148 151 110 92 85 74 62 47 28 25 50 30 47 33 26 9 2 3 30 1
142 130 141 146 145 151 173 167 165 164 170 170 165 148 116 107 101 92 77 59 46 36 48 32 49 54 33 16 5 356 36 7
138 146 158 152 151 172 178 172 171 179 179 175 160 133 117 124 118 114 90 70 61 61 57 48 39 57 39 22 15 4 11 43
157 162 163 157 171 180 178 176 178 180 172 151 133 135 129 139 152 134 101 92 81 77 62 52 52 49 36 35 19 12 -0 20
170 167 165 167 174 176 181 179 182 172 165 157 160 159 173 157 137 119 122 109 97 90 73 58 49 63 40 37 21 24 23 15
160 173 168 167 173 181 180 176 179 174 164 168 176 163 128 131 129 129 127 125 121 106 83 69 41 54 56 42 41 27 25 19
159 173 164 174 172 171 174 171 176 178 169 171 171 154 153 145 146 164 163 150 140 118 98 78 47 54 46 50 56 41 33 23
205 161 172 170 165 174 170 172 178 173 169 170 162 152 155 151 162 186 159 164 160 134 126 60 56 59 66 25 47 77 49 33
190 198 175 167 164 173 170 176 177 174 169 164 160 159 158 164 177 166 181 173 133 137 139 151 37 355 66 29 74 63 65 42
178 187 165 167 168 173 173 180 179 175 166 161 161 164 166 166 171 155 143 126 149 162 165 140 300 305 231 234 103 96 88 353
43 297 139 167 164 176 172 184 178 172 165 163 163 169 162 150 157 171 169 183 106 144 168 185 211 245 213 250 173 141 160 31
110 212 211 172 172 180 173 177 175 174 167 168 166 165 160 155 163 175 172 173 183 178 192 197 205 218 210 239 254 181 235 306
163 184 200 168 183 183 170 178 171 180 173 170 166 161 162 164 173 179 178 180 187 197 196 211 203 198 187 218 252 13 323 311